| time (UTC) | temp F | wind direction | speed knots | gust knots | rain 1hr in | rain 24hr in | rain mn in | humidity % | barometer mb |
| 20260507032838 | 59 | 251 | 1.7 | 1.7 | 0.00 | 0.00 | 0.00 | 87 | 1015.5 |
| 20260507032330 | 59 | 217 | 0.9 | 1.7 | 0.00 | 0.00 | 0.00 | 87 | 1015.5 |
| 20260507031823 | 59 | 247 | 0.9 | 2.6 | 0.00 | 0.00 | 0.00 | 87 | 1015.5 |
| 20260507030808 | 59 | 242 | 0.9 | 3.5 | 0.00 | 0.00 | 0.00 | 86 | 1015.1 |
| 20260507030301 | 59 | 288 | 0.0 | 3.5 | 0.00 | 0.00 | 0.00 | 86 | 1015.1 |
| 20260507025755 | 59 | 296 | 0.0 | 3.5 | 0.00 | 0.00 | 0.00 | 85 | 1015.1 |
| 20260507025246 | 60 | 238 | 1.7 | 6.1 | 0.00 | 0.00 | 0.00 | 85 | 1015.1 |
| 20260507024739 | 60 | 263 | 1.7 | 6.1 | 0.00 | 0.00 | 0.00 | 84 | 1015.1 |
| 20260507024232 | 60 | 299 | 0.0 | 5.2 | 0.00 | 0.00 | 0.00 | 83 | 1015.1 |
| 20260507023725 | 60 | 265 | 3.5 | 5.2 | 0.00 | 0.00 | 0.00 | 82 | 1015.1 |
| 20260507023217 | 60 | 228 | 1.7 | 5.2 | 0.00 | 0.00 | 0.00 | 82 | 1015.1 |
| 20260507022710 | 61 | 271 | 1.7 | 6.1 | 0.00 | 0.00 | 0.00 | 81 | 1015.1 |
| 20260507022203 | 61 | 252 | 1.7 | 7.8 | 0.00 | 0.00 | 0.00 | 80 | 1015.1 |
| 20260507021148 | 61 | 243 | 5.2 | 7.8 | 0.00 | 0.00 | 0.00 | 79 | 1015.1 |
| 20260507020134 | 62 | 193 | 3.5 | 9.6 | 0.00 | 0.00 | 0.00 | 77 | 1015.1 |
| 20260507015627 | 62 | 250 | 6.1 | 9.6 | 0.00 | 0.00 | 0.00 | 75 | 1015.1 |
| 20260507015120 | 62 | 251 | 5.2 | 11.3 | 0.00 | 0.00 | 0.00 | 75 | 1015.1 |
| 20260507014104 | 63 | 240 | 5.2 | 8.7 | 0.00 | 0.00 | 0.00 | 72 | 1015.1 |
| 20260507013557 | 63 | 260 | 5.2 | 7.8 | 0.00 | 0.00 | 0.00 | 72 | 1015.1 |
| 20260507013050 | 63 | 254 | 5.2 | 7.8 | 0.00 | 0.00 | 0.00 | 73 | 1015.1 |
| 20260507012543 | 63 | 222 | 4.3 | 12.2 | 0.00 | 0.00 | 0.00 | 73 | 1014.8 |
| 20260507012036 | 62 | 235 | 5.2 | 13.9 | 0.00 | 0.00 | 0.00 | 72 | 1015.1 |
| 20260507011528 | 63 | 237 | 9.6 | 12.2 | 0.00 | 0.00 | 0.00 | 72 | 1015.1 |
| 20260507011021 | 63 | 252 | 3.5 | 12.2 | 0.00 | 0.00 | 0.00 | 73 | 1014.8 |
| 20260507010514 | 63 | 250 | 7.0 | 11.3 | 0.00 | 0.00 | 0.00 | 73 | 1014.8 |
| 20260507005459 | 63 | 259 | 5.2 | 13.0 | 0.00 | 0.00 | 0.00 | 73 | 1014.8 |
| 20260507004951 | 63 | 242 | 7.8 | 13.0 | 0.00 | 0.00 | 0.00 | 73 | 1014.8 |
| 20260507004444 | 63 | 264 | 7.0 | 15.6 | 0.00 | 0.00 | 0.00 | 73 | 1014.8 |
| 20260507003937 | 63 | 271 | 8.7 | 15.6 | 0.00 | 0.00 | 0.00 | 73 | 1014.8 |
| 20260507003429 | 64 | 228 | 10.4 | 13.0 | 0.00 | 0.00 | 0.00 | 71 | 1015.1 |
| 20260507002922 | 64 | 202 | 9.6 | 12.2 | 0.00 | 0.00 | 0.00 | 70 | 1014.8 |
| 20260507002415 | 65 | 292 | 6.1 | 11.3 | 0.00 | 0.00 | 0.00 | 71 | 1014.8 |
| 20260507001908 | 65 | 265 | 3.5 | 11.3 | 0.00 | 0.00 | 0.00 | 71 | 1014.8 |
| 20260507001400 | 64 | 215 | 5.2 | 11.3 | 0.00 | 0.00 | 0.00 | 73 | 1014.8 |
| 20260507000854 | 64 | 261 | 4.3 | 13.0 | 0.00 | 0.00 | 0.00 | 73 | 1014.8 |
| 20260507000347 | 64 | 232 | 12.2 | 13.0 | 0.00 | 0.00 | 0.00 | 72 | 1014.8 |
| 20260506235839 | 64 | 216 | 7.8 | 14.8 | 0.00 | 0.00 | 0.00 | 73 | 1014.8 |
| 20260506235332 | 65 | 252 | 8.7 | 14.8 | 0.00 | 0.00 | 0.00 | 72 | 1014.8 |
| 20260506234825 | 65 | 188 | 4.3 | 13.0 | 0.00 | 0.00 | 0.00 | 71 | 1014.8 |
| 20260506234317 | 65 | 254 | 6.1 | 13.9 | 0.00 | 0.00 | 0.00 | 71 | 1014.8 |
| 20260506233810 | 65 | 243 | 7.8 | 13.9 | 0.00 | 0.00 | 0.00 | 69 | 1014.8 |
| 20260506233303 | 66 | 213 | 3.5 | 12.2 | 0.00 | 0.00 | 0.00 | 68 | 1014.8 |
| 20260506232247 | 65 | 217 | 5.2 | 14.8 | 0.00 | 0.00 | 0.00 | 63 | 1014.8 |
| 20260506231234 | 66 | 280 | 7.8 | 13.9 | 0.00 | 0.00 | 0.00 | 63 | 1014.8 |
| 20260506230726 | 65 | 210 | 7.8 | 13.9 | 0.00 | 0.00 | 0.00 | 61 | 1014.8 |
| 20260506230219 | 65 | 228 | 9.6 | 13.9 | 0.00 | 0.00 | 0.00 | 61 | 1015.1 |
| 20260506225712 | 65 | 224 | 7.0 | 13.9 | 0.00 | 0.00 | 0.00 | 66 | 1014.8 |
| 20260506225204 | 65 | 207 | 11.3 | 13.9 | 0.00 | 0.00 | 0.00 | 65 | 1015.1 |
| 20260506224657 | 65 | 248 | 9.6 | 13.9 | 0.00 | 0.00 | 0.00 | 64 | 1015.1 |
| 20260506224149 | 66 | 246 | 11.3 | 13.9 | 0.00 | 0.00 | 0.00 | 62 | 1015.1 |
| 20260506223642 | 65 | 248 | 7.0 | 13.9 | 0.00 | 0.00 | 0.00 | 62 | 1015.1 |
| 20260506223134 | 66 | 243 | 7.0 | 13.9 | 0.00 | 0.00 | 0.00 | 62 | 1015.1 |
| 20260506222627 | 65 | 221 | 9.6 | 13.9 | 0.00 | 0.00 | 0.00 | 61 | 1015.5 |
| 20260506222120 | 65 | 226 | 6.1 | 13.9 | 0.00 | 0.00 | 0.00 | 65 | 1015.5 |
| 20260506221613 | 66 | 229 | 12.2 | 13.9 | 0.00 | 0.00 | 0.00 | 63 | 1015.5 |
| 20260506221105 | 65 | 267 | 5.2 | 13.9 | 0.00 | 0.00 | 0.00 | 64 | 1015.5 |
| 20260506220558 | 66 | 226 | 9.6 | 13.9 | 0.00 | 0.00 | 0.00 | 61 | 1015.5 |
| 20260506215544 | 65 | 236 | 8.7 | 14.8 | 0.00 | 0.00 | 0.00 | 59 | 1015.8 |
| 20260506215037 | 65 | 238 | 6.1 | 14.8 | 0.00 | 0.00 | 0.00 | 62 | 1015.8 |
| 20260506214528 | 65 | 34 | 2.6 | 13.0 | 0.00 | 0.00 | 0.00 | 63 | 1015.8 |
| 20260506214021 | 67 | 249 | 9.6 | 13.0 | 0.00 | 0.00 | 0.00 | 63 | 1015.8 |
| 20260506213514 | 65 | 202 | 5.2 | 13.0 | 0.00 | 0.00 | 0.00 | 64 | 1015.8 |
| 20260506213007 | 65 | 237 | 7.8 | 13.0 | 0.00 | 0.00 | 0.00 | 66 | 1016.2 |
| 20260506212501 | 66 | 244 | 7.8 | 13.9 | 0.00 | 0.00 | 0.00 | 63 | 1016.2 |
| 20260506211952 | 66 | 238 | 3.5 | 13.0 | 0.00 | 0.00 | 0.00 | 64 | 1016.2 |
| 20260506211445 | 66 | 229 | 7.0 | 13.0 | 0.00 | 0.00 | 0.00 | 63 | 1016.2 |
| 20260506210938 | 65 | 296 | 6.1 | 13.0 | 0.00 | 0.00 | 0.00 | 63 | 1016.2 |
| 20260506210431 | 66 | 244 | 11.3 | 14.8 | 0.00 | 0.00 | 0.00 | 61 | 1016.2 |
| 20260506205923 | 66 | 240 | 8.7 | 14.8 | 0.00 | 0.00 | 0.00 | 62 | 1016.2 |
| 20260506205416 | 66 | 241 | 5.2 | 13.0 | 0.00 | 0.00 | 0.00 | 61 | 1016.2 |
| 20260506204909 | 66 | 239 | 7.8 | 11.3 | 0.00 | 0.00 | 0.00 | 61 | 1016.2 |
| 20260506203347 | 67 | 263 | 7.8 | 9.6 | 0.00 | 0.00 | 0.00 | 59 | 1016.5 |
| 20260506202840 | 66 | 265 | 6.1 | 11.3 | 0.00 | 0.00 | 0.00 | 62 | 1016.5 |
| 20260506202332 | 67 | 235 | 9.6 | 11.3 | 0.00 | 0.00 | 0.00 | 61 | 1016.5 |
| 20260506201824 | 66 | 242 | 7.0 | 13.0 | 0.00 | 0.00 | 0.00 | 62 | 1016.5 |
| 20260506201318 | 65 | 235 | 7.0 | 13.0 | 0.00 | 0.00 | 0.00 | 63 | 1016.8 |
| 20260506200810 | 66 | 252 | 7.8 | 12.2 | 0.00 | 0.00 | 0.00 | 63 | 1016.8 |
| 20260506200303 | 66 | 245 | 7.8 | 12.2 | 0.00 | 0.00 | 0.00 | 63 | 1016.8 |
| 20260506195756 | 65 | 210 | 7.8 | 13.0 | 0.00 | 0.00 | 0.00 | 64 | 1016.8 |
| 20260506195249 | 65 | 216 | 7.8 | 13.0 | 0.00 | 0.00 | 0.00 | 62 | 1016.8 |
| 20260506194742 | 65 | 277 | 7.0 | 12.2 | 0.00 | 0.00 | 0.00 | 62 | 1016.8 |
| 20260506194234 | 66 | 220 | 9.6 | 11.3 | 0.00 | 0.00 | 0.00 | 61 | 1016.8 |
| 20260506193727 | 65 | 300 | 5.2 | 12.2 | 0.00 | 0.00 | 0.00 | 64 | 1016.8 |
| 20260506193220 | 66 | 239 | 7.8 | 12.2 | 0.00 | 0.00 | 0.00 | 61 | 1016.8 |
| 20260506192712 | 65 | 220 | 5.2 | 12.2 | 0.00 | 0.00 | 0.00 | 65 | 1016.8 |
| 20260506191657 | 67 | 240 | 5.2 | 8.7 | 0.00 | 0.00 | 0.00 | 62 | 1017.2 |
| 20260506191150 | 66 | 234 | 6.1 | 11.3 | 0.00 | 0.00 | 0.00 | 62 | 1016.8 |
| 20260506190643 | 65 | 239 | 7.8 | 11.3 | 0.00 | 0.00 | 0.00 | 63 | 1017.2 |
| 20260506190136 | 65 | 253 | 7.0 | 13.9 | 0.00 | 0.00 | 0.00 | 64 | 1017.2 |
| 20260506185629 | 66 | 238 | 9.6 | 13.9 | 0.00 | 0.00 | 0.00 | 63 | 1017.2 |
| 20260506184614 | 65 | 222 | 6.1 | 9.6 | 0.00 | 0.00 | 0.00 | 64 | 1017.2 |
| 20260506184107 | 65 | 202 | 7.0 | 11.3 | 0.00 | 0.00 | 0.00 | 64 | 1017.2 |
| 20260506183600 | 64 | 202 | 7.0 | 11.3 | 0.00 | 0.00 | 0.00 | 65 | 1017.2 |
| 20260506183052 | 65 | 265 | 7.8 | 9.6 | 0.00 | 0.00 | 0.00 | 65 | 1017.2 |
| 20260506182545 | 65 | 257 | 7.0 | 13.0 | 0.00 | 0.00 | 0.00 | 66 | 1017.2 |
| 20260506181023 | 65 | 256 | 5.2 | 8.7 | 0.00 | 0.00 | 0.00 | 64 | 1017.5 |
| 20260506180515 | 65 | 243 | 7.0 | 11.3 | 0.00 | 0.00 | 0.00 | 65 | 1017.2 |
| 20260506180008 | 66 | 184 | 7.8 | 9.6 | 0.00 | 0.00 | 0.00 | 64 | 1017.2 |
| 20260506175501 | 65 | 202 | 4.3 | 8.7 | 0.00 | 0.00 | 0.00 | 67 | 1017.5 |
| 20260506174954 | 65 | 184 | 5.2 | 9.6 | 0.00 | 0.00 | 0.00 | 66 | 1017.5 |
| 20260506174446 | 65 | 204 | 5.2 | 9.6 | 0.00 | 0.00 | 0.00 | 67 | 1017.5 |
| 20260506173939 | 65 | 213 | 5.2 | 9.6 | 0.00 | 0.00 | 0.00 | 67 | 1017.2 |
| 20260506173431 | 66 | 255 | 5.2 | 8.7 | 0.00 | 0.00 | 0.00 | 65 | 1017.5 |
| 20260506172924 | 66 | 235 | 6.1 | 9.6 | 0.00 | 0.00 | 0.00 | 65 | 1017.2 |
| 20260506172417 | 67 | 167 | 4.3 | 9.6 | 0.00 | 0.00 | 0.00 | 65 | 1017.5 |
| 20260506171909 | 67 | 222 | 0.9 | 5.2 | 0.00 | 0.00 | 0.00 | 63 | 1017.2 |
| 20260506171402 | 67 | 151 | 1.7 | 6.1 | 0.00 | 0.00 | 0.00 | 60 | 1017.2 |
| 20260506170855 | 67 | 243 | 0.9 | 6.1 | 0.00 | 0.00 | 0.00 | 59 | 1017.2 |
| 20260506170348 | 68 | 1 | 1.7 | 5.2 | 0.00 | 0.00 | 0.00 | 57 | 1017.2 |
| 20260506165841 | 67 | 121 | 0.9 | 5.2 | 0.00 | 0.00 | 0.00 | 60 | 1017.2 |
| 20260506165334 | 67 | 95 | 3.5 | 5.2 | 0.00 | 0.00 | 0.00 | 61 | 1017.2 |
| 20260506164826 | 65 | 128 | 1.7 | 3.5 | 0.00 | 0.00 | 0.00 | 62 | 1017.2 |
| 20260506164319 | 65 | 150 | 1.7 | 3.5 | 0.00 | 0.00 | 0.00 | 63 | 1017.2 |
| 20260506163811 | 65 | 199 | 0.9 | 3.5 | 0.00 | 0.00 | 0.00 | 64 | 1017.2 |
| 20260506162250 | 64 | 94 | 1.7 | 7.0 | 0.00 | 0.00 | 0.00 | 66 | 1017.2 |
| 20260506161743 | 65 | 189 | 5.2 | 7.0 | 0.00 | 0.00 | 0.00 | 65 | 1017.2 |
| 20260506161235 | 64 | 19 | 1.7 | 3.5 | 0.00 | 0.00 | 0.00 | 69 | 1017.2 |
| 20260506160728 | 63 | 99 | 1.7 | 5.2 | 0.00 | 0.00 | 0.00 | 70 | 1017.2 |
| 20260506160221 | 63 | 161 | 3.5 | 5.2 | 0.00 | 0.00 | 0.00 | 70 | 1017.5 |
| 20260506155714 | 62 | 87 | 1.7 | 5.2 | 0.00 | 0.00 | 0.00 | 71 | 1017.2 |
| 20260506155206 | 63 | 174 | 2.6 | 3.5 | 0.00 | 0.00 | 0.00 | 70 | 1017.2 |
| 20260506153643 | 61 | 109 | 1.7 | 6.1 | 0.00 | 0.00 | 0.00 | 74 | 1017.2 |
| 20260506153137 | 61 | 144 | 2.6 | 6.1 | 0.00 | 0.00 | 0.00 | 75 | 1017.5 |
| 20260506152630 | 61 | 189 | 2.6 | 5.2 | 0.00 | 0.00 | 0.00 | 75 | 1017.5 |
| 20260506152122 | 62 | 49 | 0.9 | 5.2 | 0.00 | 0.00 | 0.00 | 74 | 1017.2 |
| 20260506151616 | 62 | 94 | 1.7 | 3.5 | 0.00 | 0.00 | 0.00 | 75 | 1017.2 |
| 20260506151107 | 62 | 77 | 2.6 | 3.5 | 0.00 | 0.00 | 0.00 | 74 | 1017.2 |
| 20260506150601 | 61 | 125 | 1.7 | 5.2 | 0.00 | 0.00 | 0.00 | 76 | 1017.2 |
| 20260506150054 | 61 | 357 | 0.9 | 5.2 | 0.00 | 0.00 | 0.00 | 77 | 1017.2 |
| 20260506145039 | 60 | 43 | 2.6 | 6.1 | 0.00 | 0.00 | 0.00 | 79 | 1017.2 |
| 20260506144532 | 60 | 53 | 2.6 | 6.1 | 0.00 | 0.00 | 0.00 | 78 | 1017.5 |
| 20260506144024 | 59 | 71 | 1.7 | 6.1 | 0.00 | 0.00 | 0.00 | 79 | 1017.5 |
| 20260506143516 | 59 | 36 | 3.5 | 6.1 | 0.00 | 0.00 | 0.00 | 79 | 1017.2 |
| 20260506143009 | 59 | 51 | 5.2 | 6.1 | 0.00 | 0.00 | 0.00 | 79 | 1017.2 |
| 20260506142502 | 59 | 3 | 3.5 | 5.2 | 0.00 | 0.00 | 0.00 | 79 | 1017.2 |
| 20260506141955 | 59 | 40 | 2.6 | 3.5 | 0.00 | 0.00 | 0.00 | 78 | 1017.2 |
| 20260506141448 | 58 | 4 | 1.7 | 2.6 | 0.00 | 0.00 | 0.00 | 78 | 1017.2 |
| 20260506140941 | 58 | 22 | 0.9 | 2.6 | 0.00 | 0.00 | 0.00 | 79 | 1017.2 |
| 20260506140433 | 57 | 352 | 0.0 | 2.6 | 0.00 | 0.00 | 0.00 | 80 | 1016.8 |
| 20260506135926 | 56 | 5 | 1.7 | 1.7 | 0.00 | 0.00 | 0.00 | 80 | 1017.2 |
| 20260506135419 | 56 | 338 | 0.9 | 1.7 | 0.00 | 0.00 | 0.00 | 81 | 1016.8 |
| 20260506134911 | 56 | 343 | 0.0 | 1.7 | 0.00 | 0.00 | 0.00 | 81 | 1016.8 |
| 20260506134404 | 55 | 339 | 0.0 | 0.9 | 0.00 | 0.00 | 0.00 | 83 | 1016.8 |
| 20260506133856 | 55 | 338 | 0.0 | 0.9 | 0.00 | 0.00 | 0.00 | 84 | 1016.8 |
| 20260506133349 | 55 | 329 | 0.0 | 0.9 | 0.00 | 0.00 | 0.00 | 84 | 1016.8 |
| 20260506132842 | 54 | 329 | 0.0 | 0.9 | 0.00 | 0.00 | 0.00 | 85 | 1016.8 |
| 20260506132336 | 54 | 330 | 0.9 | 1.7 | 0.00 | 0.00 | 0.00 | 85 | 1016.8 |
| 20260506131827 | 54 | 357 | 0.9 | 2.6 | 0.00 | 0.00 | 0.00 | 86 | 1016.8 |
| 20260506130813 | 53 | 330 | 0.0 | 0.9 | 0.00 | 0.00 | 0.00 | 86 | 1016.8 |
| 20260506130306 | 53 | 338 | 0.9 | 0.9 | 0.00 | 0.00 | 0.00 | 86 | 1016.5 |
| 20260506125251 | 53 | 326 | 0.9 | 0.9 | 0.00 | 0.00 | 0.00 | 85 | 1016.5 |
| 20260506124744 | 53 | 325 | 0.0 | 0.9 | 0.00 | 0.00 | 0.00 | 85 | 1016.5 |
| 20260506124237 | 54 | 324 | 0.0 | 1.7 | 0.00 | 0.00 | 0.00 | 85 | 1016.5 |
| 20260506123730 | 53 | 345 | 0.9 | 1.7 | 0.00 | 0.00 | 0.00 | 86 | 1016.5 |
| 20260506123223 | 53 | 345 | 0.9 | 1.7 | 0.00 | 0.00 | 0.00 | 86 | 1016.2 |
| 20260506122715 | 53 | 333 | 0.0 | 0.9 | 0.00 | 0.00 | 0.00 | 86 | 1016.5 |
| 20260506122208 | 53 | 328 | 0.0 | 0.9 | 0.00 | 0.00 | 0.00 | 86 | 1016.2 |
| 20260506121701 | 53 | 329 | 0.0 | 0.9 | 0.00 | 0.00 | 0.00 | 86 | 1016.2 |
| 20260506121153 | 53 | 328 | 0.0 | 0.9 | 0.00 | 0.00 | 0.00 | 86 | 1016.2 |
| 20260506120646 | 53 | 328 | 0.0 | 1.7 | 0.00 | 0.00 | 0.00 | 86 | 1016.2 |
| 20260506120139 | 53 | 326 | 0.9 | 1.7 | 0.00 | 0.00 | 0.00 | 86 | 1016.2 |
| 20260506114617 | 53 | 327 | 0.0 | 0.9 | 0.00 | 0.00 | 0.00 | 86 | 1016.2 |
| 20260506114110 | 53 | 328 | 0.0 | 1.7 | 0.00 | 0.00 | 0.00 | 86 | 1016.2 |
| 20260506113603 | 54 | 326 | 0.9 | 1.7 | 0.00 | 0.00 | 0.00 | 85 | 1015.8 |
| 20260506113056 | 54 | 324 | 0.9 | 1.7 | 0.00 | 0.00 | 0.00 | 86 | 1016.2 |
| 20260506112548 | 54 | 328 | 0.0 | 1.7 | 0.00 | 0.00 | 0.00 | 86 | 1016.2 |
| 20260506112041 | 54 | 337 | 0.9 | 1.7 | 0.00 | 0.00 | 0.00 | 86 | 1016.2 |
| 20260506111534 | 54 | 334 | 0.9 | 0.9 | 0.00 | 0.00 | 0.00 | 86 | 1016.2 |
| 20260506111026 | 54 | 332 | 0.0 | 0.9 | 0.00 | 0.00 | 0.00 | 86 | 1016.2 |
| 20260506110519 | 54 | 332 | 0.0 | 0.9 | 0.00 | 0.00 | 0.00 | 86 | 1016.2 |
| 20260506110012 | 53 | 328 | 0.0 | 0.9 | 0.00 | 0.00 | 0.00 | 87 | 1015.8 |
| 20260506104957 | 53 | 324 | 0.0 | 1.7 | 0.00 | 0.00 | 0.00 | 87 | 1016.2 |
| 20260506104450 | 53 | 322 | 0.0 | 1.7 | 0.00 | 0.00 | 0.00 | 87 | 1016.2 |
| 20260506103435 | 53 | 323 | 0.0 | 1.7 | 0.00 | 0.00 | 0.00 | 87 | 1016.2 |
| 20260506102928 | 53 | 324 | 0.9 | 1.7 | 0.00 | 0.00 | 0.00 | 87 | 1015.8 |
| 20260506101407 | 54 | 318 | 0.9 | 0.9 | 0.00 | 0.00 | 0.00 | 86 | 1016.2 |
| 20260506100352 | 54 | 325 | 0.0 | 0.9 | 0.00 | 0.00 | 0.00 | 86 | 1016.2 |
| 20260506095845 | 54 | 325 | 0.0 | 0.9 | 0.00 | 0.00 | 0.00 | 86 | 1016.2 |
| 20260506095338 | 54 | 325 | 0.9 | 2.6 | 0.00 | 0.00 | 0.00 | 86 | 1016.2 |
| 20260506094830 | 54 | 314 | 0.0 | 2.6 | 0.00 | 0.00 | 0.00 | 86 | 1016.2 |
| 20260506094323 | 54 | 333 | 0.9 | 1.7 | 0.00 | 0.00 | 0.00 | 86 | 1016.2 |
| 20260506093815 | 54 | 322 | 0.9 | 1.7 | 0.00 | 0.00 | 0.00 | 86 | 1016.2 |
| 20260506092801 | 54 | 326 | 0.9 | 1.7 | 0.00 | 0.00 | 0.00 | 86 | 1016.2 |
| 20260506092254 | 54 | 325 | 0.9 | 1.7 | 0.00 | 0.00 | 0.00 | 85 | 1016.2 |
| 20260506091239 | 54 | 328 | 0.0 | 1.7 | 0.00 | 0.00 | 0.00 | 85 | 1016.2 |
| 20260506090732 | 54 | 331 | 0.9 | 1.7 | 0.00 | 0.00 | 0.00 | 85 | 1016.2 |
| 20260506090225 | 54 | 318 | 0.0 | 0.9 | 0.00 | 0.00 | 0.00 | 85 | 1016.2 |
| 20260506085718 | 54 | 315 | 0.0 | 1.7 | 0.00 | 0.00 | 0.00 | 85 | 1016.2 |
| 20260506085211 | 54 | 328 | 0.0 | 1.7 | 0.00 | 0.00 | 0.00 | 85 | 1016.5 |
| 20260506084703 | 54 | 316 | 0.0 | 1.7 | 0.00 | 0.00 | 0.00 | 85 | 1016.5 |
| 20260506084155 | 54 | 313 | 0.0 | 1.7 | 0.00 | 0.00 | 0.00 | 85 | 1016.5 |
| 20260506083648 | 54 | 324 | 0.9 | 1.7 | 0.00 | 0.00 | 0.00 | 85 | 1016.5 |
| 20260506083141 | 54 | 334 | 0.9 | 1.7 | 0.00 | 0.00 | 0.00 | 85 | 1016.2 |
| 20260506082635 | 54 | 322 | 0.0 | 0.9 | 0.00 | 0.00 | 0.00 | 84 | 1016.5 |
| 20260506082127 | 54 | 314 | 0.0 | 0.9 | 0.00 | 0.00 | 0.00 | 84 | 1016.5 |
| 20260506081620 | 54 | 322 | 0.0 | 1.7 | 0.00 | 0.00 | 0.00 | 84 | 1016.5 |
| 20260506081113 | 54 | 310 | 0.0 | 1.7 | 0.00 | 0.00 | 0.00 | 84 | 1016.5 |
| 20260506080605 | 54 | 338 | 1.7 | 2.6 | 0.00 | 0.00 | 0.00 | 84 | 1016.5 |
| 20260506073521 | 55 | 325 | 1.7 | 2.6 | 0.00 | 0.00 | 0.00 | 82 | 1016.5 |
| 20260506073014 | 55 | 310 | 0.9 | 2.6 | 0.00 | 0.00 | 0.00 | 82 | 1016.5 |
| 20260506072507 | 55 | 325 | 0.9 | 1.7 | 0.00 | 0.00 | 0.00 | 82 | 1016.5 |
| 20260506072000 | 55 | 324 | 0.9 | 1.7 | 0.00 | 0.00 | 0.00 | 82 | 1016.8 |
| 20260506071452 | 55 | 321 | 0.9 | 1.7 | 0.00 | 0.00 | 0.00 | 82 | 1016.5 |
| 20260506070945 | 55 | 305 | 0.0 | 1.7 | 0.00 | 0.00 | 0.00 | 81 | 1016.5 |
| 20260506070437 | 55 | 331 | 0.9 | 1.7 | 0.00 | 0.00 | 0.00 | 81 | 1016.5 |
| 20260506062339 | 56 | 308 | 0.0 | 1.7 | 0.00 | 0.00 | 0.00 | 80 | 1016.2 |
| 20260506061832 | 56 | 337 | 1.7 | 1.7 | 0.00 | 0.00 | 0.00 | 80 | 1016.2 |
| 20260506061325 | 56 | 313 | 0.9 | 1.7 | 0.00 | 0.00 | 0.00 | 80 | 1016.2 |
| 20260506060310 | 56 | 312 | 0.9 | 1.7 | 0.00 | 0.00 | 0.00 | 80 | 1016.2 |
| 20260506050142 | 57 | 313 | 0.0 | 1.7 | 0.00 | 0.00 | 0.00 | 79 | 1015.5 |
| 20260506045128 | 57 | 321 | 0.0 | 1.7 | 0.00 | 0.00 | 0.00 | 79 | 1015.1 |
| 20260506044620 | 57 | 317 | 0.9 | 1.7 | 0.00 | 0.00 | 0.00 | 79 | 1015.1 |
| 20260506043606 | 58 | 322 | 0.0 | 1.7 | 0.00 | 0.00 | 0.00 | 78 | 1015.1 |
| 20260506043059 | 58 | 318 | 0.9 | 1.7 | 0.00 | 0.00 | 0.00 | 77 | 1015.1 |
| 20260506042552 | 58 | 306 | 0.9 | 0.9 | 0.00 | 0.00 | 0.00 | 77 | 1014.8 |
| 20260506042045 | 58 | 278 | 0.0 | 0.9 | 0.00 | 0.00 | 0.00 | 76 | 1014.8 |
| 20260506041537 | 58 | 278 | 0.0 | 0.9 | 0.00 | 0.00 | 0.00 | 76 | 1014.8 |
| 20260506041029 | 58 | 278 | 0.0 | 0.9 | 0.00 | 0.00 | 0.00 | 76 | 1014.8 |
| 20260506040522 | 59 | 277 | 0.0 | 0.9 | 0.00 | 0.00 | 0.00 | 75 | 1014.8 |
| 20260506040015 | 59 | 277 | 0.9 | 0.9 | 0.00 | 0.00 | 0.00 | 75 | 1014.8 |
| 20260506035508 | 59 | 269 | 0.9 | 0.9 | 0.00 | 0.00 | 0.00 | 75 | 1014.8 |
| 20260506035001 | 59 | 270 | 0.9 | 0.9 | 0.00 | 0.00 | 0.00 | 75 | 1014.5 |
| 20260506033946 | 59 | 263 | 0.0 | 1.7 | 0.00 | 0.00 | 0.00 | 74 | 1014.5 |